Regional Weather Roundup
Issued by NWS

Home | Current Version | Previous Version | Text Only | Print | Product List | Glossary Off
Versions: 1 2 3 4 5 6 7 8 9 10 11 12 13 14 15 16 17 18 19 20 21 22 23 24 25 26 27 28 29 30 31 32 33 34 35 36 37 38 39 40 41 42 43 44 45 46 47 48 49 50

000
ASUS45 KABQ 300810
RWRNM
WEATHER ROUNDUP FOR NEW MEXICO
NATIONAL WEATHER SERVICE ALBUQUERQUE NM
200 AM MDT WED JUL 30 2014

NOTE: "FAIR" MEANS FEW OR NO CLOUDS BELOW 12,000 FEET AGL WITH NO
       SIGNIFICANT WEATHER OR OBSTRUCTIONS TO VISION.

      THIS PRODUCT IS RELEASED AS TWO VERSIONS.  ONE VERSION NEAR
      THE TOP OF THE HOUR CONTAINING PRELIMINARY DATA FROM ALBUQUERQUE
      AND OTHER STATIONS.  A FINAL VERSION WITH ADDITIONAL DATA IS
      ISSUED ABOUT 10 MINUTES AFTER THE HOUR.

NMZ501-503-504-510>518-300900-
NORTHWEST PLATEAU/NORTHCENTRAL MOUNTAINS

CITY           SKY/WX    TMP DP  RH WIND       PRES   REMARKS
FARMINGTON     MOCLDY    68  53  58 W5        30.18F
LOS ALAMOS     MOCLDY    62  52  69 SW8       30.32F
SANTA FE       PTCLDY    61  57  87 CALM      30.26F
TAOS           PTCLDY    55  50  82 NE5       30.32F
ANGEL FIRE     FAIR      49  47  96 CALM      30.40S

$$
NMZ402-403-502-505>509-300900-
WESTCENTRAL MOUNTAINS/SOUTHWEST MOUNTAINS

CITY           SKY/WX    TMP DP  RH WIND       PRES   REMARKS
GALLUP         LGT RAIN  65  56  72 CALM      30.29S
SILVER CITY    PTCLDY    64  59  82 N10       30.22F

$$
NMZ407-409-411-412-300900-
SOUTHERN DESERTS

CITY           SKY/WX    TMP DP  RH WIND       PRES   REMARKS
LORDSBURG      FAIR      72  54  53 S6        30.12F
DEMING         MOCLDY    71  67  87 NW5       30.12F
LAS CRUCES     PTCLDY    73  64  72 N5        30.14S
HOLLOMAN AFB   CLEAR     73  64  73 SW6       30.09F
ALAMOGORDO     CLEAR     72  59  64 NE5       30.11F
T OR C         PTCLDY    66  64  93 NW6       30.15F

$$
NMZ519>523-300900-
CENTRAL VALLEYS/CENTRAL HIGHLANDS

CITY           SKY/WX    TMP DP  RH WIND       PRES   REMARKS
ALBUQUERQUE    MOCLDY    69  60  73 NW7       30.21S
DOUBLE EAGLE   LGT RAIN  65  60  83 NW15      30.26R
MORIARTY ARPT  FAIR      61  53  74 NW5       30.24F
CLINES CORNERS MOCLDY    62  50  64 W12       30.26F
BELEN          FAIR      66  63  89 CALM      30.19F
SOCORRO        FAIR      66  60  79 NE6       30.16F

$$
NMZ524>526-539-540-300900-
SOUTHCENTRAL MOUNTAINS

CITY           SKY/WX    TMP DP  RH WIND       PRES   REMARKS
RUIDOSO        PTCLDY    63  55  77 SW5       30.31F

$$
NMZ527>531-300900-
NORTHEAST HIGHLANDS/NORTHEAST PLAINS

CITY           SKY/WX    TMP DP  RH WIND       PRES   REMARKS
LAS VEGAS      PTCLDY    58  54  86 S8        30.26F
RATON          PTCLDY    60  58  92 N6        30.23F
CLAYTON        CLOUDY    68  63  84 SW13      30.14

$$
NMZ532>537-300900-
EASTCENTRAL PLAINS

CITY           SKY/WX    TMP DP  RH WIND       PRES   REMARKS
TUCUMCARI      PTCLDY    70  65  84 S6        30.10F
CANNON AFB     CLEAR     66  64  94 S7        30.13F
CLOVIS AIRPORT NOT AVBL

$$
NMZ028-029-538-300900-
SOUTHEAST PLAINS

CITY           SKY/WX    TMP DP  RH WIND       PRES   REMARKS
ROSWELL        PTCLDY    73  68  84 CALM      30.07F
ARTESIA        MOCLDY    73  63  68 NE6       30.08F
CARLSBAD       CLOUDY    81  50  33 SE6       30.04F
HOBBS          CLOUDY    70  63  78 E5        30.11S


$$


USA.gov is the U.S. government's official web portal to all federal, state and local government web resources and services.